Time,TemperatureF,DewpointF,PressureIn,WindDirection,WindDirectionDegrees,WindSpeedMPH,WindSpeedGustMPH,Humidity,HourlyPrecipIn,Conditions,Clouds,dailyrainin,SoftwareType,DateUTC
2013-05-10 00:22:00,56.0,53.0,30.08,North,0,0.0,-999.0,91,0.00,,,-99.99,,2013-05-10 07:22:00,
2013-05-10 00:31:00,56.0,53.0,30.08,North,0,0.0,-999.0,91,0.00,,,-99.99,,2013-05-10 07:31:00,
2013-05-10 00:42:00,56.0,53.0,30.08,North,0,0.0,-999.0,91,0.00,,,-99.99,,2013-05-10 07:42:00,
2013-05-10 00:52:00,56.0,53.0,30.08,North,0,0.0,-999.0,91,0.00,,,-99.99,,2013-05-10 07:52:00,
2013-05-10 01:21:00,55.0,52.0,30.08,North,0,0.0,-999.0,91,0.00,,,-99.99,,2013-05-10 08:21:00,
2013-05-10 01:32:00,55.0,52.0,30.08,North,0,0.0,-999.0,91,0.00,,,-99.99,,2013-05-10 08:32:00,
2013-05-10 01:42:00,55.0,52.0,30.08,North,0,0.0,-999.0,91,0.00,,,-99.99,,2013-05-10 08:42:00,
2013-05-10 01:52:00,55.0,52.0,30.08,North,0,0.0,-999.0,91,0.00,,,-99.99,,2013-05-10 08:52:00,
2013-05-10 02:21:00,56.0,53.0,30.07,North,0,0.0,-999.0,91,0.00,,,-99.99,,2013-05-10 09:21:00,
2013-05-10 02:32:00,56.0,53.0,30.07,North,0,0.0,-999.0,91,0.00,,,-99.99,,2013-05-10 09:32:00,
2013-05-10 02:42:00,56.0,53.0,30.07,North,0,0.0,-999.0,91,0.00,,,-99.99,,2013-05-10 09:42:00,
2013-05-10 02:52:00,56.0,53.0,30.07,North,0,0.0,-999.0,91,0.00,,,-99.99,,2013-05-10 09:52:00,
2013-05-10 03:23:00,55.0,52.0,30.07,North,0,0.0,-999.0,91,0.00,,,-99.99,,2013-05-10 10:23:00,
2013-05-10 03:32:00,55.0,52.0,30.07,North,0,0.0,-999.0,91,0.00,,,-99.99,,2013-05-10 10:32:00,
2013-05-10 03:42:00,55.0,52.0,30.07,North,0,0.0,-999.0,91,0.00,,,-99.99,,2013-05-10 10:42:00,
2013-05-10 03:52:00,55.0,52.0,30.07,North,0,0.0,-999.0,91,0.00,,,-99.99,,2013-05-10 10:52:00,
2013-05-10 04:21:00,56.0,53.0,30.07,West,280,3.0,-999.0,91,0.00,,,-99.99,,2013-05-10 11:21:00,
2013-05-10 04:32:00,56.0,53.0,30.07,West,280,3.0,-999.0,91,0.00,,,-99.99,,2013-05-10 11:32:00,
2013-05-10 04:42:00,56.0,53.0,30.07,West,280,3.0,-999.0,91,0.00,,,-99.99,,2013-05-10 11:42:00,
2013-05-10 04:51:00,56.0,53.0,30.07,West,280,3.0,-999.0,91,0.00,,,-99.99,,2013-05-10 11:51:00,
2013-05-10 05:21:00,55.0,52.0,30.06,East,100,1.0,-999.0,91,0.00,,,-99.99,,2013-05-10 12:21:00,
2013-05-10 05:32:00,55.0,52.0,30.06,East,100,1.0,-999.0,91,0.00,,,-99.99,,2013-05-10 12:32:00,
2013-05-10 05:42:00,55.0,52.0,30.06,East,100,1.0,-999.0,91,0.00,,,-99.99,,2013-05-10 12:42:00,
2013-05-10 05:51:00,55.0,52.0,30.06,East,100,1.0,-999.0,91,0.00,,,-99.99,,2013-05-10 12:51:00,
2013-05-10 06:21:00,55.0,52.0,30.06,East,90,1.0,-999.0,91,0.00,,,-99.99,,2013-05-10 13:21:00,
2013-05-10 06:32:00,55.0,52.0,30.06,East,90,1.0,-999.0,91,0.00,,,-99.99,,2013-05-10 13:32:00,
2013-05-10 06:41:00,55.0,52.0,30.06,East,90,1.0,-999.0,91,0.00,,,-99.99,,2013-05-10 13:41:00,
2013-05-10 06:52:00,55.0,52.0,30.06,East,90,1.0,-999.0,91,0.00,,,-99.99,,2013-05-10 13:52:00,
2013-05-10 07:21:00,55.0,52.0,30.07,East,100,2.0,-999.0,91,0.00,,,-99.99,,2013-05-10 14:21:00,
2013-05-10 07:32:00,55.0,52.0,30.07,East,100,2.0,-999.0,91,0.00,,,-99.99,,2013-05-10 14:32:00,
2013-05-10 07:41:00,55.0,52.0,30.07,East,100,2.0,-999.0,91,0.00,,,-99.99,,2013-05-10 14:41:00,
2013-05-10 07:51:00,55.0,52.0,30.07,East,100,2.0,-999.0,91,0.00,,,-99.99,,2013-05-10 14:51:00,
2013-05-10 08:21:00,57.0,54.0,30.07,North,0,0.0,-999.0,90,0.00,,,-99.99,,2013-05-10 15:21:00,
2013-05-10 08:32:00,57.0,54.0,30.07,North,0,0.0,-999.0,90,0.00,,,-99.99,,2013-05-10 15:32:00,
2013-05-10 08:42:00,57.0,54.0,30.07,North,0,0.0,-999.0,90,0.00,,,-99.99,,2013-05-10 15:42:00,
2013-05-10 08:52:00,57.0,54.0,30.07,North,0,0.0,-999.0,90,0.00,,,-99.99,,2013-05-10 15:52:00,
2013-05-10 09:23:00,59.0,55.0,30.07,West,280,3.0,-999.0,86,0.00,,,-99.99,,2013-05-10 16:23:00,
2013-05-10 09:32:00,59.0,55.0,30.07,West,280,3.0,-999.0,86,0.00,,,-99.99,,2013-05-10 16:32:00,
2013-05-10 09:42:00,59.0,55.0,30.07,West,280,3.0,-999.0,86,0.00,,,-99.99,,2013-05-10 16:42:00,
2013-05-10 09:52:00,59.0,55.0,30.07,West,280,3.0,-999.0,86,0.00,,,-99.99,,2013-05-10 16:52:00,
2013-05-10 11:21:00,61.0,56.0,30.09,West,270,6.0,-999.0,84,0.00,,,-99.99,,2013-05-10 18:21:00,
2013-05-10 11:34:00,61.0,56.0,30.09,West,270,6.0,-999.0,84,0.00,,,-99.99,,2013-05-10 18:34:00,
2013-05-10 11:43:00,61.0,56.0,30.09,West,270,6.0,-999.0,84,0.00,,,-99.99,,2013-05-10 18:43:00,
2013-05-10 11:54:00,61.0,56.0,30.09,West,270,6.0,-999.0,84,0.00,,,-99.99,,2013-05-10 18:54:00,
2013-05-10 12:21:00,63.0,57.0,30.09,WSW,240,2.0,-999.0,80,0.00,,,-99.99,,2013-05-10 19:21:00,
2013-05-10 12:32:00,63.0,57.0,30.09,WSW,240,2.0,-999.0,80,0.00,,,-99.99,,2013-05-10 19:32:00,
2013-05-10 12:42:00,63.0,57.0,30.09,WSW,240,2.0,-999.0,80,0.00,,,-99.99,,2013-05-10 19:42:00,
2013-05-10 12:52:00,63.0,57.0,30.09,WSW,240,2.0,-999.0,80,0.00,,,-99.99,,2013-05-10 19:52:00,
2013-05-10 13:21:00,65.0,57.0,30.07,West,280,7.0,-999.0,75,0.00,,,-99.99,,2013-05-10 20:21:00,
2013-05-10 13:32:00,65.0,57.0,30.07,West,280,7.0,-999.0,75,0.00,,,-99.99,,2013-05-10 20:32:00,
2013-05-10 13:41:00,65.0,57.0,30.07,West,280,7.0,-999.0,75,0.00,,,-99.99,,2013-05-10 20:41:00,
2013-05-10 13:52:00,65.0,57.0,30.07,West,280,7.0,-999.0,75,0.00,,,-99.99,,2013-05-10 20:52:00,
2013-05-10 14:24:00,67.0,58.0,30.05,WNW,290,6.0,-999.0,72,0.00,,,-99.99,,2013-05-10 21:24:00,
2013-05-10 14:32:00,67.0,58.0,30.05,WNW,290,6.0,-999.0,72,0.00,,,-99.99,,2013-05-10 21:32:00,
2013-05-10 14:43:00,67.0,58.0,30.05,WNW,290,6.0,-999.0,72,0.00,,,-99.99,,2013-05-10 21:43:00,
2013-05-10 14:52:00,67.0,58.0,30.05,WNW,290,6.0,-999.0,72,0.00,,,-99.99,,2013-05-10 21:52:00,
2013-05-10 15:22:00,67.0,58.0,30.04,WNW,290,8.0,-999.0,74,0.00,,,-99.99,,2013-05-10 22:22:00,
2013-05-10 15:32:00,67.0,58.0,30.04,WNW,290,8.0,-999.0,74,0.00,,,-99.99,,2013-05-10 22:32:00,
2013-05-10 15:42:00,67.0,58.0,30.04,WNW,290,8.0,-999.0,74,0.00,,,-99.99,,2013-05-10 22:42:00,
2013-05-10 15:52:00,67.0,58.0,30.04,WNW,290,8.0,-999.0,74,0.00,,,-99.99,,2013-05-10 22:52:00,
2013-05-10 16:22:00,68.0,59.0,30.03,West,280,8.0,-999.0,72,0.00,,,-99.99,,2013-05-10 23:22:00,
2013-05-10 16:32:00,68.0,59.0,30.03,West,280,8.0,-999.0,72,0.00,,,-99.99,,2013-05-10 23:32:00,
2013-05-10 16:41:00,68.0,59.0,30.03,West,280,8.0,-999.0,72,0.00,,,-99.99,,2013-05-10 23:41:00,
2013-05-10 16:52:00,68.0,59.0,30.03,West,280,8.0,-999.0,72,0.00,,,-99.99,,2013-05-10 23:52:00,
2013-05-10 17:21:00,68.0,58.0,30.03,West,270,6.0,-999.0,70,0.00,,,-99.99,,2013-05-11 00:21:00,
2013-05-10 17:32:00,68.0,58.0,30.03,West,270,6.0,-999.0,70,0.00,,,-99.99,,2013-05-11 00:32:00,
2013-05-10 17:42:00,68.0,58.0,30.03,West,270,6.0,-999.0,70,0.00,,,-99.99,,2013-05-11 00:42:00,
2013-05-10 17:51:00,68.0,58.0,30.03,West,270,6.0,-999.0,70,0.00,,,-99.99,,2013-05-11 00:51:00,
2013-05-10 18:21:00,67.0,58.0,30.02,West,270,5.0,-999.0,73,0.00,,,-99.99,,2013-05-11 01:21:00,
2013-05-10 18:31:00,67.0,58.0,30.02,West,270,5.0,-999.0,73,0.00,,,-99.99,,2013-05-11 01:31:00,
2013-05-10 18:42:00,67.0,58.0,30.02,West,270,5.0,-999.0,73,0.00,,,-99.99,,2013-05-11 01:42:00,
2013-05-10 18:52:00,67.0,58.0,30.02,West,270,5.0,-999.0,73,0.00,,,-99.99,,2013-05-11 01:52:00,
2013-05-10 19:21:00,66.0,59.0,30.02,WNW,290,2.0,-999.0,77,0.00,,,-99.99,,2013-05-11 02:21:00,
2013-05-10 19:32:00,66.0,59.0,30.02,WNW,290,2.0,-999.0,77,0.00,,,-99.99,,2013-05-11 02:32:00,
2013-05-10 19:42:00,66.0,59.0,30.02,WNW,290,2.0,-999.0,77,0.00,,,-99.99,,2013-05-11 02:42:00,
2013-05-10 19:51:00,66.0,59.0,30.02,WNW,290,2.0,-999.0,77,0.00,,,-99.99,,2013-05-11 02:51:00,
2013-05-10 20:21:00,60.0,56.0,30.04,West,270,3.0,-999.0,87,0.00,,,-99.99,,2013-05-11 03:21:00,
2013-05-10 20:32:00,60.0,56.0,30.04,West,270,3.0,-999.0,87,0.00,,,-99.99,,2013-05-11 03:32:00,
2013-05-10 20:42:00,60.0,56.0,30.04,West,270,3.0,-999.0,87,0.00,,,-99.99,,2013-05-11 03:42:00,
2013-05-10 20:53:00,60.0,56.0,30.04,West,270,3.0,-999.0,87,0.00,,,-99.99,,2013-05-11 03:53:00,
2013-05-10 21:23:00,59.0,56.0,30.06,West,270,1.0,-999.0,90,0.00,,,-99.99,,2013-05-11 04:23:00,
2013-05-10 21:33:00,59.0,56.0,30.06,West,270,1.0,-999.0,90,0.00,,,-99.99,,2013-05-11 04:33:00,
2013-05-10 21:43:00,59.0,56.0,30.06,West,270,1.0,-999.0,90,0.00,,,-99.99,,2013-05-11 04:43:00,
2013-05-10 21:52:00,59.0,56.0,30.06,West,270,1.0,-999.0,90,0.00,,,-99.99,,2013-05-11 04:52:00,
2013-05-10 22:21:00,59.0,55.0,30.07,West,270,3.0,-999.0,86,0.00,,,-99.99,,2013-05-11 05:21:00,
2013-05-10 22:32:00,59.0,55.0,30.07,West,270,3.0,-999.0,86,0.00,,,-99.99,,2013-05-11 05:32:00,
2013-05-10 22:42:00,59.0,55.0,30.07,West,270,3.0,-999.0,86,0.00,,,-99.99,,2013-05-11 05:42:00,
2013-05-10 22:52:00,59.0,55.0,30.07,West,270,3.0,-999.0,86,0.00,,,-99.99,,2013-05-11 05:52:00,
2013-05-10 23:21:00,59.0,55.0,30.07,North,0,0.0,-999.0,87,0.00,,,-99.99,,2013-05-11 06:21:00,
2013-05-10 23:32:00,59.0,55.0,30.07,North,0,0.0,-999.0,87,0.00,,,-99.99,,2013-05-11 06:32:00,
2013-05-10 23:42:00,59.0,55.0,30.07,North,0,0.0,-999.0,87,0.00,,,-99.99,,2013-05-11 06:42:00,
2013-05-10 23:52:00,59.0,55.0,30.07,North,0,0.0,-999.0,87,0.00,,,-99.99,,2013-05-11 06:52:00,